Regional Weather Roundup
Issued by NWS Cleveland, OH

Home | Current Version | Previous Version | Text Only | Print | Product List | Glossary Off
Versions: 1 2 3 4 5 6 7 8 9 10 11 12 13 14 15 16 17 18 19 20 21 22 23 24 25 26 27 28 29 30 31 32 33 34 35 36 37 38 39 40 41 42 43 44 45 46 47 48 49 50

000
ASUS41 KCLE 172000
RWRCLE
OHIO REGIONAL WEATHER ROUNDUP
NATIONAL WEATHER SERVICE WILMINGTON, OH
400 PM EDT WED SEP 17 2014

NOTE: "FAIR" INDICATES FEW OR NO CLOUDS BELOW 12,000 FEET WITH NO
SIGNIFICANT WEATHER AND/OR OBSTRUCTIONS TO VISIBILITY.

OHZ001>008-015>018-024>027-034-035-043-044-172100-
   NORTHWEST OHIO

CITY           SKY/WX    TMP DP  RH WIND       PRES   REMARKS
DEFIANCE       MOSUNNY   67  44  43 VRB5      30.00F
FINDLAY        SUNNY     67  45  45 W7        29.99F
TOLEDO EXPRESS PTSUNNY   68  44  42 SW12      29.99F
TOLEDO METCALF SUNNY     68  45  43 W10       30.00F
LIMA           MOSUNNY   67  47  48 CALM      30.00F
$$

OHZ009>014-019>023-028>033-038-089-172100-
   NORTHEAST OHIO

CITY           SKY/WX    TMP DP  RH WIND       PRES   REMARKS
CLE-HOPKINS    PTSUNNY   67  47  48 CALM      30.01F
CLE-LAKEFRONT  SUNNY     65  50  58 W9        29.99S
CUY CO. ARPT   MOSUNNY   66  52  59 NW14      30.01S
LORAIN-ELYRIA  MOSUNNY   69  48  47 W5        30.00F
ASHTABULA      PTSUNNY   64  50  60 NW5       30.00S
AKRON-CANTON   MOSUNNY   69  45  41 W7        30.00F
WOOSTER        NOT AVBL
MANSFIELD      MOSUNNY   67  44  43 W8        30.01F
YOUNGSTOWN     PTSUNNY   64  44  48 W6        30.00S
$$

OHZ042-051>053-060>062-070>072-077>081-172100-
  SOUTHWEST OHIO

CITY           SKY/WX    TMP DP  RH WIND       PRES   REMARKS
CINC-COVINGTON MOSUNNY   67  49  52 W5        30.01F
CINC-LUNKEN    SUNNY     67  49  52 VRB5      30.01F
HAMILTON       MOSUNNY   66  49  54 CALM      30.02F
DAYTON         NOT AVBL
WRIGHT-PAT AFB PTSUNNY   63  46  54 VRB2      30.02F
DAYTON GENERAL MOSUNNY   63  47  55 W3        30.01F
WILMINGTON     MOSUNNY   66  47  50 W6        30.01F
$$

OHZ036-037-039>041-045>050-054>059-063>069-073>076-082>088-172100-
  CENTRAL AND SOUTHEAST OHIO

CITY           SKY/WX    TMP DP  RH WIND       PRES   REMARKS
COLUMBUS       MOSUNNY   70  45  40 SW7       29.99F
OSU AIRPORT    MOSUNNY   67  46  47 W6        30.00F
BOLTON FIELD   PTSUNNY   66  48  52 CALM      30.01F
RICKENBACK AFB NOT AVBL
NEWARK         PTSUNNY   67  47  48 SW5       29.99F
MARION         PTSUNNY   67  45  45 SW7       30.01F
LANCASTER      PTSUNNY   68  48  48 W3        30.00F
ZANESVILLE     MOSUNNY   71  47  42 VRB5      29.99F
NEW PHILLY     PTSUNNY   68  47  46 CALM      30.00F
$$


USA.gov is the U.S. government's official web portal to all federal, state and local government web resources and services.